Weather in Kruglikovo

Russia / Khabarovsk Krai     48°06′17″N   135°07′20″E
temp.,
°C
wind,
m/s
gust,
m/s
humid.,
%
clouds,
%
prec.,
mm/h
press.,
hPa
HPBL,
m
27 february, sat
sat2701:00−23ssw22950 0.0 103520
04:00−23ssw22960 0.0 103620
07:00−24ssw22950 0.0 103620
10:00−19ssw22893 0.0 1035117
13:00−13sse248233 0.0 1033341
16:00−9s257966 0.0 1029552
19:00−11se2386100 0.0 102630
22:00−11s2386100 0.0 102444
28 february, sun
sun2801:00−9wsw1186100 0.0 102122
04:00−7ssw31492100 0.3 1019597
07:00−4sw61496100 1.5 1018741
10:00−3wsw71196100 4.5 1017742
13:00−6w61089100 0.3 1019535
16:00−6w71181100 0.3 1019772
19:00−11w61281100 0.0 1022471
22:00−14w41086100 0.0 1025228
1 march, mon
mon101:00−18w4889100 0.0 1026143
04:00−22wsw449250 0.0 102958
07:00−24wsw46920 0.0 103194
10:00−20w511820 0.0 1032321
13:00−15w69670 0.0 1032875
16:00−15w58690 0.0 10321022
19:00−19wsw34810 0.0 103352
22:00−22wsw238826 0.0 103321
2 march, tue
tue201:00−23wsw239053 0.0 103320
04:00−25w129367 0.0 103320
07:00−27ssw11890 0.0 103420
10:00−21wsw22830 0.0 1033104
13:00−17w23700 0.0 1032509
16:00−16w23730 0.0 1030425
19:00−21w22830 0.0 103120
22:00−23sw12760 0.0 103220
3 march, wed
wed301:00−24s12740 0.0 103120
04:00−24sse22780 0.0 103020
07:00−24se23810 0.0 103020
10:00−18se36791 0.0 1028219
13:00−11s487087 0.0 1024563
16:00−7sw376893 0.0 1020893
19:00−9wsw268386 0.0 1019140
22:00−9s399692 0.3 1018325